| time (UTC) | temp C | wind direction | speed KPH | gust KPH | rain 1hr cm | rain 24hr cm | rain mn cm | humidity % | barometer mb |
| 20260906231535 | 18 | 0.0 | 0.0 | 0.00 | 0.00 | 0.00 | 72 | 1015.0 | |
| 20260906230039 | 18 | 0.0 | 0.0 | 0.00 | 0.00 | 0.00 | 72 | 1015.3 | |
| 20260906224537 | 18 | 0.0 | 0.0 | 0.00 | 0.00 | 0.00 | 72 | 1015.3 | |
| 20260906223037 | 18 | 0.0 | 0.0 | 0.00 | 0.00 | 0.00 | 70 | 1015.5 | |
| 20260906221536 | 18 | 0.0 | 0.0 | 0.00 | 0.00 | 0.00 | 70 | 1015.5 | |
| 20260906220039 | 18 | 0.0 | 0.0 | 0.00 | 0.00 | 0.00 | 69 | 1015.5 | |
| 20260906214543 | 18 | 0.0 | 0.0 | 0.00 | 0.00 | 0.00 | 69 | 1015.5 | |
| 20260906213034 | 18 | 0.0 | 0.0 | 0.00 | 0.00 | 0.00 | 69 | 1015.5 | |
| 20260906211533 | 18 | 0.0 | 0.0 | 0.00 | 0.00 | 0.00 | 69 | 1015.7 | |
| 20260906210038 | 18 | 0.0 | 0.0 | 0.00 | 0.00 | 0.00 | 69 | 1015.6 | |
| 20260906204534 | 17 | 0.0 | 0.0 | 0.00 | 0.00 | 0.00 | 69 | 1015.7 | |
| 20260906203037 | 17 | 0.0 | 0.0 | 0.00 | 0.00 | 0.00 | 70 | 1015.8 | |
| 20260906201544 | 17 | 0.0 | 0.0 | 0.00 | 0.00 | 0.00 | 70 | 1015.8 | |
| 20260906200034 | 17 | 0.0 | 0.0 | 0.00 | 0.00 | 0.00 | 72 | 1016.0 | |
| 20260906194534 | 17 | 0.0 | 0.0 | 0.00 | 0.00 | 0.00 | 73 | 1016.1 | |
| 20260906193034 | 17 | 0.0 | 0.0 | 0.00 | 0.00 | 0.00 | 73 | 1016.2 | |
| 20260906191537 | 17 | 0.0 | 0.0 | 0.00 | 0.00 | 0.00 | 73 | 1016.1 | |
| 20260906190035 | 16 | 0.0 | 0.0 | 0.00 | 0.00 | 0.00 | 74 | 1016.3 | |
| 20260906184537 | 16 | 0.0 | 0.0 | 0.00 | 0.00 | 0.00 | 75 | 1016.2 | |
| 20260906183052 | 16 | 0.0 | 0.0 | 0.00 | 0.00 | 0.00 | 77 | 1016.6 | |
| 20260906181541 | 15 | 0.0 | 0.0 | 0.00 | 0.00 | 0.00 | 81 | 1016.8 | |
| 20260906180047 | 15 | 0.0 | 0.0 | 0.00 | 0.00 | 0.00 | 85 | 1016.6 | |
| 20260906174537 | 15 | 0.0 | 0.0 | 0.00 | 0.00 | 0.00 | 87 | 1016.1 | |
| 20260906173040 | 13 | 0.0 | 0.0 | 0.00 | 0.00 | 0.00 | 88 | 1016.8 | |
| 20260906171539 | 13 | 0.0 | 0.0 | 0.00 | 0.00 | 0.00 | 86 | 1018.0 | |
| 20260906170033 | 13 | 0.0 | 0.0 | 0.00 | 0.00 | 0.00 | 86 | 1018.0 | |
| 20260906164534 | 13 | 0.0 | 0.0 | 0.00 | 0.00 | 0.00 | 86 | 1018.1 | |
| 20260906163036 | 12 | 0.0 | 0.0 | 0.00 | 0.00 | 0.00 | 86 | 1018.3 | |
| 20260906161547 | 12 | 0.0 | 0.0 | 0.00 | 0.00 | 0.00 | 86 | 1018.2 | |
| 20260906160036 | 12 | 0.0 | 0.0 | 0.00 | 0.00 | 0.00 | 86 | 1018.1 | |
| 20260906154544 | 12 | 0.0 | 0.0 | 0.00 | 0.00 | 0.00 | 86 | 1018.3 | |
| 20260906153044 | 12 | 0.0 | 0.0 | 0.00 | 0.00 | 0.00 | 87 | 1018.5 | |
| 20260906151535 | 12 | 0.0 | 0.0 | 0.00 | 0.00 | 0.00 | 86 | 1018.6 | |
| 20260906150037 | 12 | 0.0 | 0.0 | 0.00 | 0.00 | 0.00 | 85 | 1018.7 | |
| 20260906144538 | 13 | 0.0 | 0.0 | 0.00 | 0.00 | 0.00 | 85 | 1018.8 | |
| 20260906143034 | 15 | 0.0 | 0.0 | 0.00 | 0.00 | 0.00 | 85 | 1019.1 | |
| 20260906141543 | 14 | 0.0 | 0.0 | 0.00 | 0.00 | 0.00 | 85 | 1018.6 | |
| 20260906140037 | 14 | 0.0 | 0.0 | 0.00 | 0.00 | 0.00 | 86 | 1018.4 | |
| 20260906134536 | 13 | 0.0 | 0.0 | 0.00 | 0.05 | 0.00 | 86 | 1018.5 | |
| 20260906133041 | 13 | 0.0 | 0.0 | 0.00 | 0.05 | 0.00 | 86 | 1018.3 | |
| 20260906131543 | 13 | 0.0 | 0.0 | 0.00 | 0.05 | 0.00 | 85 | 1018.3 | |
| 20260906130051 | 13 | 0.0 | 0.0 | 0.00 | 0.05 | 0.00 | 86 | 1018.4 | |
| 20260906124536 | 13 | 0.0 | 0.0 | 0.00 | 0.05 | 0.00 | 86 | 1018.4 | |
| 20260906123037 | 13 | 0.0 | 0.0 | 0.00 | 0.05 | 0.00 | 86 | 1018.5 | |
| 20260906121539 | 13 | 0.0 | 0.0 | 0.00 | 0.05 | 0.00 | 86 | 1018.3 | |
| 20260906120034 | 13 | 0.0 | 0.0 | 0.00 | 0.05 | 0.00 | 86 | 1018.0 | |
| 20260906114544 | 13 | 0.0 | 0.0 | 0.00 | 0.05 | 0.00 | 85 | 1018.1 | |
| 20260906113036 | 13 | 0.0 | 0.0 | 0.00 | 0.05 | 0.00 | 85 | 1018.3 | |
| 20260906111543 | 13 | 0.0 | 0.0 | 0.00 | 0.05 | 0.00 | 84 | 1018.3 | |
| 20260906110036 | 13 | 0.0 | 0.0 | 0.00 | 0.05 | 0.00 | 84 | 1018.3 | |
| 20260906104537 | 13 | 0.0 | 0.0 | 0.00 | 0.05 | 0.00 | 84 | 1018.5 | |
| 20260906103033 | 13 | 0.0 | 0.0 | 0.00 | 0.05 | 0.00 | 84 | 1018.4 | |
| 20260906101537 | 13 | 0.0 | 0.0 | 0.00 | 0.05 | 0.00 | 83 | 1018.3 | |
| 20260906100034 | 14 | 0.0 | 0.0 | 0.00 | 0.05 | 0.00 | 83 | 1018.4 | |
| 20260906094541 | 14 | 0.0 | 0.0 | 0.00 | 0.05 | 0.00 | 84 | 1018.3 | |
| 20260906093036 | 14 | 0.0 | 0.0 | 0.00 | 0.05 | 0.00 | 83 | 1018.3 | |
| 20260906091536 | 14 | 0.0 | 0.0 | 0.00 | 0.05 | 0.00 | 83 | 1018.4 | |
| 20260906090040 | 14 | 0.0 | 0.0 | 0.00 | 0.05 | 0.00 | 83 | 1018.6 | |
| 20260906084536 | 13 | 0.0 | 0.0 | 0.00 | 0.05 | 0.00 | 85 | 1018.9 | |
| 20260906083042 | 13 | 0.0 | 0.0 | 0.00 | 0.05 | 0.00 | 86 | 1019.2 | |
| 20260906081533 | 13 | 0.0 | 0.0 | 0.00 | 0.05 | 0.00 | 87 | 1019.4 | |
| 20260906080039 | 13 | 0.0 | 0.0 | 0.00 | 0.05 | 0.00 | 87 | 1019.4 | |
| 20260906074535 | 12 | 0.0 | 0.0 | 0.00 | 0.05 | 0.00 | 87 | 1019.5 | |
| 20260906073037 | 12 | 0.0 | 0.0 | 0.00 | 0.05 | 0.00 | 86 | 1019.4 | |
| 20260906071537 | 13 | 0.0 | 0.0 | 0.00 | 0.05 | 0.00 | 85 | 1019.5 | |
| 20260906070035 | 13 | 0.0 | 0.0 | 0.00 | 0.05 | 0.00 | 85 | 1019.7 | |
| 20260906064535 | 13 | 0.0 | 0.0 | 0.00 | 0.05 | 0.00 | 85 | 1019.7 | |
| 20260906063034 | 13 | 0.0 | 0.0 | 0.00 | 0.05 | 0.00 | 84 | 1019.9 | |
| 20260906061534 | 13 | 0.0 | 0.0 | 0.00 | 0.05 | 0.00 | 84 | 1020.3 | |
| 20260906060039 | 12 | 0.0 | 0.0 | 0.00 | 0.05 | 0.00 | 85 | 1020.1 | |
| 20260906054537 | 12 | 0.0 | 0.0 | 0.00 | 0.05 | 0.05 | 85 | 1020.0 | |
| 20260906053035 | 13 | 0.0 | 0.0 | 0.00 | 0.05 | 0.05 | 84 | 1020.0 | |
| 20260906051537 | 13 | 0.0 | 0.0 | 0.00 | 0.05 | 0.05 | 83 | 1019.5 | |
| 20260906050035 | 13 | 0.0 | 0.0 | 0.00 | 0.05 | 0.05 | 83 | 1019.4 | |
| 20260906044534 | 13 | 0.0 | 0.0 | 0.00 | 0.05 | 0.05 | 81 | 1019.2 | |
| 20260906043035 | 14 | 0.0 | 0.0 | 0.00 | 0.05 | 0.05 | 77 | 1019.5 | |
| 20260906041535 | 14 | 0.0 | 0.0 | 0.00 | 0.05 | 0.05 | 77 | 1018.6 | |
| 20260906040035 | 14 | 0.0 | 0.0 | 0.00 | 0.05 | 0.05 | 76 | 1018.4 | |
| 20260906034551 | 14 | 0.0 | 0.0 | 0.00 | 0.05 | 0.05 | 74 | 1018.4 | |
| 20260906033035 | 15 | 0.0 | 0.0 | 0.00 | 0.05 | 0.05 | 71 | 1018.8 | |
| 20260906031534 | 16 | 0.0 | 0.0 | 0.00 | 0.05 | 0.05 | 67 | 1019.1 | |
| 20260906030035 | 16 | 0.0 | 0.0 | 0.00 | 0.05 | 0.05 | 65 | 1019.6 | |
| 20260906024539 | 16 | 0.0 | 0.0 | 0.00 | 0.05 | 0.05 | 65 | 1017.6 | |
| 20260906023032 | 16 | 0.0 | 0.0 | 0.00 | 0.05 | 0.05 | 64 | 1017.1 | |
| 20260906021541 | 16 | 0.0 | 0.0 | 0.00 | 0.05 | 0.05 | 62 | 1017.3 | |
| 20260906020036 | 17 | 0.0 | 0.0 | 0.00 | 0.05 | 0.05 | 60 | 1017.3 | |
| 20260906014538 | 18 | 0.0 | 0.0 | 0.00 | 0.05 | 0.05 | 57 | 1017.1 | |
| 20260906013036 | 18 | 0.0 | 0.0 | 0.00 | 0.05 | 0.05 | 55 | 1017.3 | |
| 20260906011535 | 19 | 0.0 | 0.0 | 0.00 | 0.05 | 0.05 | 53 | 1017.2 | |
| 20260906010041 | 20 | 0.0 | 0.0 | 0.00 | 0.05 | 0.05 | 50 | 1017.2 | |
| 20260906004534 | 21 | 0.0 | 0.0 | 0.00 | 0.05 | 0.05 | 48 | 1017.2 | |
| 20260906003034 | 21 | 0.0 | 0.0 | 0.00 | 0.05 | 0.05 | 42 | 1017.1 | |
| 20260906001548 | 22 | 0.0 | 0.0 | 0.00 | 0.05 | 0.05 | 42 | 1017.3 | |
| 20260906000037 | 22 | 0.0 | 0.0 | 0.00 | 0.05 | 0.05 | 42 | 1017.3 | |
| 20260905234551 | 22 | 0.0 | 0.0 | 0.00 | 0.05 | 0.05 | 42 | 1017.2 | |
| 20260905233035 | 23 | 0.0 | 0.0 | 0.00 | 0.05 | 0.05 | 35 | 1017.3 |